Home > Weather > Fort Lauderdale > Past weeks

Flag for USA Past Weather in Fort Lauderdale, Florida, USA — Yesterday and Last 2 Weeks

Now
89 °F

Partly sunny.


Feels Like: 98 °F
Forecast: 82 / 90 °F
Wind: 12 mph from Southeast

Location: Fort Lauderdale / Hollywood International Airport

Current Time: Jul 26, 2016 at 6:01:10 PM

Latest Report: Jul 26, 2016 at 4:53 PM


Visibility: 10 mi

Pressure: 30.02 "Hg

Humidity: 61%

Dew Point: 74 °F

Location of Fort LauderdaleLocation

Past Weather in Fort Lauderdale — Graph

°F

Fort Lauderdale Temperature Yesterday

Maximum temperature yesterday: 89 °F (at 11:53 AM)
Minimum temperature yesterday: 80 °F (at 3:53 AM)
Average temperature yesterday: 85 °F

High & Low Weather Summary for the Past Weeks

 TemperatureHumidityPressure
High91 °F (Jul 12, 12:53 PM)88% (Jul 16, 4:53 AM)30.18 "Hg (Jul 16, 4:53 AM)
Low77 °F (Jul 23, 4:53 AM)57% (Jul 19, 2:53 PM)29.98 "Hg (Jul 23, 4:53 PM)
Average85 °F72%30.07 "Hg
* Reported Jul 11 3:53 PM — Jul 26 3:53 PM, Fort Lauderdale, Weather by CustomWeather, © 2016

Note: Actual official high and low records may vary slightly from our data, if they occured in-between our weather recording intervals... More about our weather records

Advertising

Fort Lauderdale Weather History for the Previous 24 Hours

Scroll right to see more
 ConditionsComfort  
Time TempWeatherWind HumidityBarometerVisibility
3:53 PM
Tue, Jul 26
90 °FBroken clouds.16 mph61%30.03 "Hg10 mi
2:53 PM89 °FScattered clouds.12 mph63%30.05 "Hg10 mi
1:53 PM89 °FScattered clouds.13 mph61%30.06 "Hg10 mi
12:53 PM89 °FScattered clouds.13 mph65%30.08 "Hg10 mi
11:53 AM89 °FScattered clouds.16 mph65%30.08 "Hg10 mi
10:53 AM88 °FScattered clouds.13 mph67%30.08 "Hg10 mi
9:53 AM87 °FPassing clouds.12 mph69%30.07 "Hg10 mi
8:53 AM86 °FPassing clouds.9 mph72%30.07 "Hg10 mi
7:53 AM84 °FScattered clouds.8 mph80%30.06 "Hg10 mi
6:53 AM81 °FPassing clouds.6 mph85%30.05 "Hg10 mi
5:53 AM84 °FPassing clouds.7 mph77%30.04 "Hg10 mi
4:53 AM82 °FPassing clouds.No wind88%30.03 "Hg10 mi
3:53 AM81 °FPassing clouds.No wind88%30.03 "Hg10 mi
2:53 AM82 °FPassing clouds.No wind85%30.04 "Hg10 mi
2:01 AM81 °FThunderstorms. Partly cloudy.9 mph88%30.06 "Hg10 mi
12:53 AM84 °FPassing clouds.5 mph74%30.05 "Hg10 mi
11:53 PM
Mon, Jul 25
85 °FPassing clouds.6 mph77%30.05 "Hg10 mi
10:53 PM85 °FPassing clouds.7 mph75%30.06 "Hg10 mi
9:53 PM85 °FPassing clouds.8 mph72%30.05 "Hg10 mi
8:53 PM86 °FPassing clouds.12 mph67%30.05 "Hg10 mi
7:53 PM85 °FPassing clouds.9 mph75%30.03 "Hg10 mi
6:53 PM86 °FPassing clouds.9 mph72%30.01 "Hg10 mi
Weather by CustomWeather, © 2016

See weather overviewHow to use our weather pages